| time (UTC) | temp F | wind direction | speed MPH | gust MPH | rain 1hr in | rain 24hr in | rain mn in | humidity % | barometer mb |
| 20260504160135 | 79 | 298 | 0.0 | 4.0 | 0.00 | 0.00 | 0.00 | 36 | 1016.8 |
| 20260504151109 | 78 | 60 | 1.0 | 4.0 | 0.00 | 0.00 | 0.00 | 39 | 1017.2 |
| 20260504150606 | 78 | 299 | 2.0 | 5.0 | 0.00 | 0.00 | 0.00 | 39 | 1017.3 |
| 20260504150103 | 79 | 34 | 2.0 | 4.0 | 0.00 | 0.00 | 0.00 | 38 | 1017.2 |
| 20260504141032 | 76 | 118 | 1.0 | 4.0 | 0.00 | 0.00 | 0.00 | 46 | 1017.1 |
| 20260504140528 | 77 | 118 | 1.0 | 5.0 | 0.00 | 0.00 | 0.00 | 46 | 1017.2 |
| 20260504130453 | 73 | 242 | 1.0 | 4.0 | 0.00 | 0.00 | 0.00 | 63 | 1016.8 |
| 20260504110340 | 54 | 57 | 1.0 | 2.0 | 0.00 | 0.00 | 0.00 | 93 | 1016.6 |
| 20260504100257 | 55 | 67 | 1.0 | 2.0 | 0.00 | 0.00 | 0.00 | 90 | 1016.3 |
| 20260504081651 | 56 | 58 | 2.0 | 3.0 | 0.00 | 0.00 | 0.00 | 87 | 1016.3 |
| 20260504081147 | 56 | 74 | 2.0 | 2.0 | 0.00 | 0.00 | 0.00 | 87 | 1016.2 |
| 20260504080643 | 56 | 87 | 2.0 | 3.0 | 0.00 | 0.00 | 0.00 | 88 | 1016.3 |
| 20260504080140 | 56 | 89 | 2.0 | 3.0 | 0.00 | 0.00 | 0.00 | 89 | 1016.3 |
| 20260504070108 | 56 | 89 | 0.0 | 2.0 | 0.00 | 0.00 | 0.00 | 87 | 1016.6 |
| 20260504050456 | 59 | 43 | 0.0 | 2.0 | 0.00 | 0.00 | 0.00 | 82 | 1017.4 |
| 20260504045953 | 59 | 339 | 0.0 | 2.0 | 0.00 | 0.00 | 0.00 | 82 | 1017.4 |
| 20260504045449 | 59 | 86 | 1.0 | 2.0 | 0.00 | 0.00 | 0.00 | 81 | 1017.2 |
| 20260504044945 | 59 | 71 | 2.0 | 2.0 | 0.00 | 0.00 | 0.00 | 81 | 1017.5 |
| 20260504044443 | 59 | 338 | 0.0 | 2.0 | 0.00 | 0.00 | 0.00 | 81 | 1017.5 |
| 20260504043940 | 59 | 62 | 1.0 | 2.0 | 0.00 | 0.00 | 0.00 | 80 | 1017.7 |
| 20260504043437 | 59 | 22 | 1.0 | 2.0 | 0.00 | 0.00 | 0.00 | 80 | 1017.6 |
| 20260504042935 | 59 | 89 | 0.0 | 1.0 | 0.00 | 0.00 | 0.00 | 80 | 1017.6 |
| 20260504042431 | 60 | 70 | 1.0 | 2.0 | 0.00 | 0.00 | 0.00 | 79 | 1017.4 |
| 20260504041928 | 60 | 46 | 0.0 | 2.0 | 0.00 | 0.00 | 0.00 | 79 | 1017.6 |
| 20260504041424 | 60 | 12 | 2.0 | 2.0 | 0.00 | 0.00 | 0.00 | 79 | 1017.7 |
| 20260504040920 | 60 | 54 | 1.0 | 2.0 | 0.00 | 0.00 | 0.00 | 78 | 1017.7 |
| 20260504040418 | 60 | 8 | 1.0 | 2.0 | 0.00 | 0.00 | 0.00 | 78 | 1017.8 |
| 20260504035914 | 60 | 53 | 2.0 | 2.0 | 0.00 | 0.00 | 0.00 | 77 | 1017.6 |
| 20260504035411 | 60 | 51 | 1.0 | 2.0 | 0.00 | 0.00 | 0.00 | 78 | 1017.7 |
| 20260504034908 | 60 | 37 | 0.0 | 2.0 | 0.00 | 0.00 | 0.00 | 78 | 1017.6 |
| 20260504034405 | 61 | 67 | 0.0 | 2.0 | 0.00 | 0.00 | 0.00 | 77 | 1017.5 |
| 20260504033902 | 61 | 71 | 0.0 | 2.0 | 0.00 | 0.00 | 0.00 | 76 | 1017.5 |
| 20260504033400 | 61 | 55 | 0.0 | 2.0 | 0.00 | 0.00 | 0.00 | 76 | 1017.7 |
| 20260504032857 | 61 | 43 | 0.0 | 2.0 | 0.00 | 0.00 | 0.00 | 76 | 1017.6 |
| 20260504032354 | 62 | 13 | 0.0 | 2.0 | 0.00 | 0.00 | 0.00 | 75 | 1017.5 |
| 20260504031850 | 62 | 65 | 0.0 | 2.0 | 0.00 | 0.00 | 0.00 | 74 | 1017.3 |
| 20260504031347 | 62 | 34 | 1.0 | 2.0 | 0.00 | 0.00 | 0.00 | 75 | 1017.4 |
| 20260504030844 | 62 | 77 | 0.0 | 1.0 | 0.00 | 0.00 | 0.00 | 71 | 1017.4 |
| 20260504030341 | 62 | 105 | 0.0 | 2.0 | 0.00 | 0.00 | 0.00 | 71 | 1017.3 |
| 20260504025837 | 62 | 345 | 0.0 | 2.0 | 0.00 | 0.00 | 0.00 | 70 | 1017.4 |
| 20260504025334 | 62 | 118 | 0.0 | 1.0 | 0.00 | 0.00 | 0.00 | 70 | 1017.2 |
| 20260504024831 | 62 | 131 | 0.0 | 1.0 | 0.00 | 0.00 | 0.00 | 71 | 1017.3 |
| 20260504024327 | 62 | 118 | 0.0 | 1.0 | 0.00 | 0.00 | 0.00 | 68 | 1017.2 |
| 20260504023824 | 63 | 58 | 0.0 | 2.0 | 0.00 | 0.00 | 0.00 | 69 | 1017.2 |
| 20260504023321 | 63 | 103 | 0.0 | 1.0 | 0.00 | 0.00 | 0.00 | 68 | 1017.1 |
| 20260504022817 | 63 | 86 | 0.0 | 1.0 | 0.00 | 0.00 | 0.00 | 67 | 1017.0 |
| 20260504022314 | 64 | 33 | 0.0 | 2.0 | 0.00 | 0.00 | 0.00 | 65 | 1017.0 |
| 20260504021810 | 64 | 40 | 0.0 | 2.0 | 0.00 | 0.00 | 0.00 | 64 | 1017.0 |
| 20260504021308 | 64 | 7 | 0.0 | 1.0 | 0.00 | 0.00 | 0.00 | 65 | 1016.8 |
| 20260504020804 | 64 | 19 | 1.0 | 2.0 | 0.00 | 0.00 | 0.00 | 65 | 1016.8 |
| 20260504020301 | 65 | 62 | 0.0 | 2.0 | 0.00 | 0.00 | 0.00 | 64 | 1016.8 |
| 20260504015757 | 65 | 36 | 0.0 | 2.0 | 0.00 | 0.00 | 0.00 | 62 | 1016.7 |
| 20260504015254 | 66 | 45 | 0.0 | 2.0 | 0.00 | 0.00 | 0.00 | 64 | 1016.5 |
| 20260504014749 | 66 | 57 | 0.0 | 2.0 | 0.00 | 0.00 | 0.00 | 61 | 1016.6 |
| 20260504014246 | 66 | 60 | 1.0 | 2.0 | 0.00 | 0.00 | 0.00 | 58 | 1016.4 |
| 20260504013744 | 66 | 75 | 0.0 | 2.0 | 0.00 | 0.00 | 0.00 | 61 | 1016.5 |
| 20260504013241 | 67 | 53 | 0.0 | 2.0 | 0.00 | 0.00 | 0.00 | 60 | 1016.5 |
| 20260504012738 | 67 | 101 | 2.0 | 2.0 | 0.00 | 0.00 | 0.00 | 60 | 1016.2 |
| 20260504012236 | 67 | 102 | 2.0 | 2.0 | 0.00 | 0.00 | 0.00 | 61 | 1016.1 |
| 20260504011732 | 67 | 58 | 7.0 | 8.0 | 0.00 | 0.00 | 0.00 | 59 | 1016.0 |
| 20260504011229 | 68 | 17 | 1.0 | 3.0 | 0.00 | 0.00 | 0.00 | 58 | 1016.0 |
| 20260504010725 | 68 | 99 | 2.0 | 3.0 | 0.00 | 0.00 | 0.00 | 52 | 1015.7 |
| 20260504010221 | 67 | 100 | 2.0 | 2.0 | 0.00 | 0.00 | 0.00 | 52 | 1015.5 |
| 20260504005718 | 68 | 84 | 0.0 | 1.0 | 0.00 | 0.00 | 0.00 | 55 | 1015.2 |
| 20260504005215 | 68 | 122 | 0.0 | 1.0 | 0.00 | 0.00 | 0.00 | 56 | 1015.4 |
| 20260504004713 | 68 | 108 | 1.0 | 2.0 | 0.00 | 0.00 | 0.00 | 53 | 1015.4 |
| 20260504004209 | 68 | 218 | 0.0 | 2.0 | 0.00 | 0.00 | 0.00 | 53 | 1015.3 |
| 20260504003706 | 69 | 69 | 0.0 | 0.0 | 0.00 | 0.00 | 0.00 | 51 | 1015.4 |
| 20260504003203 | 69 | 29 | 0.0 | 1.0 | 0.00 | 0.00 | 0.00 | 49 | 1015.3 |
| 20260504002700 | 69 | 259 | 0.0 | 1.0 | 0.00 | 0.00 | 0.00 | 51 | 1015.2 |
| 20260504002157 | 70 | 350 | 0.0 | 2.0 | 0.00 | 0.00 | 0.00 | 48 | 1015.0 |
| 20260504001655 | 70 | 13 | 0.0 | 1.0 | 0.00 | 0.00 | 0.00 | 47 | 1015.0 |
| 20260504001151 | 71 | 98 | 0.0 | 1.0 | 0.00 | 0.00 | 0.00 | 46 | 1015.1 |
| 20260504000648 | 71 | 236 | 1.0 | 1.0 | 0.00 | 0.00 | 0.00 | 45 | 1015.1 |
| 20260504000145 | 71 | 344 | 0.0 | 1.0 | 0.00 | 0.00 | 0.00 | 44 | 1015.1 |
| 20260503235643 | 72 | 248 | 0.0 | 1.0 | 0.00 | 0.00 | 0.00 | 43 | 1015.0 |
| 20260503235139 | 72 | 177 | 0.0 | 2.0 | 0.00 | 0.00 | 0.00 | 43 | 1015.1 |
| 20260503234638 | 72 | 127 | 0.0 | 1.0 | 0.00 | 0.00 | 0.00 | 42 | 1014.8 |
| 20260503234136 | 73 | 225 | 1.0 | 3.0 | 0.00 | 0.00 | 0.00 | 42 | 1014.9 |
| 20260503233632 | 73 | 284 | 0.0 | 2.0 | 0.00 | 0.00 | 0.00 | 43 | 1014.9 |
| 20260503233128 | 74 | 268 | 2.0 | 2.0 | 0.00 | 0.00 | 0.00 | 41 | 1014.8 |
| 20260503232625 | 74 | 214 | 0.0 | 2.0 | 0.00 | 0.00 | 0.00 | 40 | 1014.9 |
| 20260503232122 | 75 | 177 | 1.0 | 6.0 | 0.00 | 0.00 | 0.00 | 39 | 1015.0 |
| 20260503231620 | 75 | 295 | 0.0 | 2.0 | 0.00 | 0.00 | 0.00 | 39 | 1015.1 |
| 20260503231116 | 75 | 201 | 0.0 | 2.0 | 0.00 | 0.00 | 0.00 | 38 | 1015.4 |
| 20260503230614 | 76 | 271 | 2.0 | 2.0 | 0.00 | 0.00 | 0.00 | 37 | 1015.2 |
| 20260503230111 | 76 | 311 | 0.0 | 2.0 | 0.00 | 0.00 | 0.00 | 36 | 1015.4 |
| 20260503225608 | 76 | 283 | 1.0 | 3.0 | 0.00 | 0.00 | 0.00 | 36 | 1015.0 |
| 20260503225108 | 77 | 337 | 0.0 | 2.0 | 0.00 | 0.00 | 0.00 | 37 | 1014.9 |
| 20260503224605 | 77 | 224 | 0.0 | 3.0 | 0.00 | 0.00 | 0.00 | 33 | 1014.8 |
| 20260503224103 | 77 | 325 | 1.0 | 2.0 | 0.00 | 0.00 | 0.00 | 35 | 1014.8 |
| 20260503223601 | 77 | 297 | 2.0 | 3.0 | 0.00 | 0.00 | 0.00 | 34 | 1015.0 |
| 20260503223056 | 78 | 28 | 3.0 | 5.0 | 0.00 | 0.00 | 0.00 | 33 | 1014.8 |
| 20260503222554 | 78 | 228 | 2.0 | 2.0 | 0.00 | 0.00 | 0.00 | 33 | 1014.9 |
| 20260503222052 | 78 | 218 | 0.0 | 2.0 | 0.00 | 0.00 | 0.00 | 34 | 1014.9 |
| 20260503221550 | 79 | 303 | 1.0 | 3.0 | 0.00 | 0.00 | 0.00 | 32 | 1015.1 |
| 20260503221047 | 80 | 334 | 2.0 | 2.0 | 0.00 | 0.00 | 0.00 | 32 | 1015.1 |
| 20260503220543 | 80 | 334 | 0.0 | 2.0 | 0.00 | 0.00 | 0.00 | 31 | 1015.2 |
| 20260503220040 | 79 | 321 | 2.0 | 3.0 | 0.00 | 0.00 | 0.00 | 34 | 1014.9 |
| 20260503215537 | 79 | 280 | 2.0 | 3.0 | 0.00 | 0.00 | 0.00 | 34 | 1015.2 |
| 20260503215034 | 80 | 307 | 2.0 | 4.0 | 0.00 | 0.00 | 0.00 | 33 | 1015.3 |
| 20260503214533 | 81 | 278 | 2.0 | 3.0 | 0.00 | 0.00 | 0.00 | 32 | 1015.1 |
| 20260503214029 | 82 | 121 | 1.0 | 3.0 | 0.00 | 0.00 | 0.00 | 31 | 1015.2 |
| 20260503213527 | 83 | 15 | 4.0 | 4.0 | 0.00 | 0.00 | 0.00 | 31 | 1015.2 |
| 20260503213024 | 82 | 294 | 1.0 | 2.0 | 0.00 | 0.00 | 0.00 | 32 | 1014.9 |
| 20260503212521 | 82 | 245 | 1.0 | 3.0 | 0.00 | 0.00 | 0.00 | 31 | 1014.8 |
| 20260503212018 | 82 | 110 | 3.0 | 4.0 | 0.00 | 0.00 | 0.00 | 31 | 1015.3 |
| 20260503211515 | 83 | 181 | 2.0 | 4.0 | 0.00 | 0.00 | 0.00 | 30 | 1015.1 |
| 20260503211011 | 83 | 318 | 2.0 | 4.0 | 0.00 | 0.00 | 0.00 | 31 | 1015.1 |
| 20260503210508 | 82 | 198 | 2.0 | 3.0 | 0.00 | 0.00 | 0.00 | 32 | 1015.1 |
| 20260503210003 | 82 | 226 | 1.0 | 4.0 | 0.00 | 0.00 | 0.00 | 32 | 1015.3 |
| 20260503205500 | 82 | 280 | 2.0 | 4.0 | 0.00 | 0.00 | 0.00 | 32 | 1015.2 |
| 20260503204956 | 82 | 275 | 3.0 | 5.0 | 0.00 | 0.00 | 0.00 | 34 | 1015.2 |
| 20260503204454 | 82 | 271 | 2.0 | 4.0 | 0.00 | 0.00 | 0.00 | 34 | 1015.4 |
| 20260503203950 | 82 | 336 | 4.0 | 7.0 | 0.00 | 0.00 | 0.00 | 33 | 1015.5 |
| 20260503203448 | 81 | 215 | 2.0 | 5.0 | 0.00 | 0.00 | 0.00 | 34 | 1015.2 |
| 20260503202944 | 81 | 327 | 3.0 | 4.0 | 0.00 | 0.00 | 0.00 | 35 | 1015.4 |
| 20260503202443 | 81 | 107 | 2.0 | 5.0 | 0.00 | 0.00 | 0.00 | 34 | 1015.5 |
| 20260503201941 | 82 | 31 | 3.0 | 3.0 | 0.00 | 0.00 | 0.00 | 36 | 1015.4 |
| 20260503201438 | 82 | 271 | 1.0 | 4.0 | 0.00 | 0.00 | 0.00 | 33 | 1015.5 |
| 20260503200935 | 81 | 296 | 2.0 | 4.0 | 0.00 | 0.00 | 0.00 | 35 | 1015.4 |
| 20260503200432 | 81 | 336 | 3.0 | 4.0 | 0.00 | 0.00 | 0.00 | 36 | 1015.6 |
| 20260503195928 | 82 | 357 | 2.0 | 4.0 | 0.00 | 0.00 | 0.00 | 34 | 1015.8 |
| 20260503195426 | 81 | 30 | 2.0 | 6.0 | 0.00 | 0.00 | 0.00 | 36 | 1015.9 |
| 20260503194922 | 81 | 150 | 4.0 | 5.0 | 0.00 | 0.00 | 0.00 | 36 | 1015.7 |
| 20260503194419 | 80 | 230 | 0.0 | 2.0 | 0.00 | 0.00 | 0.00 | 36 | 1016.0 |
| 20260503193914 | 79 | 73 | 5.0 | 5.0 | 0.00 | 0.00 | 0.00 | 38 | 1016.1 |
| 20260503193410 | 80 | 174 | 2.0 | 6.0 | 0.00 | 0.00 | 0.00 | 36 | 1016.0 |
| 20260503192906 | 80 | 43 | 2.0 | 3.0 | 0.00 | 0.00 | 0.00 | 39 | 1016.4 |
| 20260503192402 | 80 | 124 | 3.0 | 4.0 | 0.00 | 0.00 | 0.00 | 36 | 1016.3 |
| 20260503191858 | 79 | 309 | 2.0 | 3.0 | 0.00 | 0.00 | 0.00 | 38 | 1016.5 |
| 20260503191356 | 80 | 354 | 2.0 | 8.0 | 0.00 | 0.00 | 0.00 | 36 | 1016.5 |
| 20260503190852 | 80 | 330 | 4.0 | 5.0 | 0.00 | 0.00 | 0.00 | 37 | 1016.4 |
| 20260503190349 | 79 | 121 | 7.0 | 8.0 | 0.00 | 0.00 | 0.00 | 38 | 1016.7 |
| 20260503185846 | 79 | 329 | 1.0 | 6.0 | 0.00 | 0.00 | 0.00 | 36 | 1016.6 |
| 20260503185342 | 78 | 60 | 1.0 | 3.0 | 0.00 | 0.00 | 0.00 | 37 | 1016.8 |
| 20260503184842 | 79 | 237 | 4.0 | 5.0 | 0.00 | 0.00 | 0.00 | 38 | 1016.8 |
| 20260503184339 | 79 | 21 | 3.0 | 4.0 | 0.00 | 0.00 | 0.00 | 39 | 1017.1 |
| 20260503183834 | 79 | 64 | 2.0 | 5.0 | 0.00 | 0.00 | 0.00 | 38 | 1017.0 |
| 20260503183332 | 78 | 97 | 5.0 | 5.0 | 0.00 | 0.00 | 0.00 | 39 | 1017.0 |
| 20260503182829 | 77 | 139 | 1.0 | 5.0 | 0.00 | 0.00 | 0.00 | 38 | 1017.0 |
| 20260503182329 | 78 | 104 | 4.0 | 6.0 | 0.00 | 0.00 | 0.00 | 38 | 1017.2 |
| 20260503181825 | 78 | 120 | 3.0 | 6.0 | 0.00 | 0.00 | 0.00 | 38 | 1017.4 |
| 20260503181322 | 79 | 128 | 2.0 | 3.0 | 0.00 | 0.00 | 0.00 | 39 | 1017.4 |
| 20260503180818 | 78 | 338 | 4.0 | 6.0 | 0.00 | 0.00 | 0.00 | 40 | 1017.2 |
| 20260503180317 | 78 | 308 | 3.0 | 4.0 | 0.00 | 0.00 | 0.00 | 38 | 1017.4 |
| 20260503175813 | 78 | 146 | 2.0 | 5.0 | 0.00 | 0.00 | 0.00 | 37 | 1017.5 |
| 20260503175311 | 77 | 57 | 3.0 | 9.0 | 0.00 | 0.00 | 0.00 | 39 | 1017.6 |
| 20260503174806 | 78 | 292 | 0.0 | 5.0 | 0.00 | 0.00 | 0.00 | 38 | 1017.5 |
| 20260503174305 | 78 | 333 | 2.0 | 6.0 | 0.00 | 0.00 | 0.00 | 38 | 1017.5 |
| 20260503173800 | 77 | 279 | 1.0 | 6.0 | 0.00 | 0.00 | 0.00 | 39 | 1017.7 |
| 20260503173255 | 77 | 42 | 3.0 | 4.0 | 0.00 | 0.00 | 0.00 | 41 | 1017.6 |
| 20260503172753 | 76 | 225 | 3.0 | 3.0 | 0.00 | 0.00 | 0.00 | 42 | 1017.9 |
| 20260503172250 | 76 | 156 | 3.0 | 6.0 | 0.00 | 0.00 | 0.00 | 39 | 1017.7 |
| 20260503171746 | 77 | 305 | 5.0 | 6.0 | 0.00 | 0.00 | 0.00 | 42 | 1017.8 |
| 20260503171243 | 76 | 123 | 6.0 | 8.0 | 0.00 | 0.00 | 0.00 | 40 | 1017.9 |
| 20260503170740 | 76 | 222 | 9.0 | 11.0 | 0.00 | 0.00 | 0.00 | 42 | 1017.9 |
| 20260503170237 | 77 | 69 | 2.0 | 6.0 | 0.00 | 0.00 | 0.00 | 40 | 1017.9 |